• In Schweiz
  • Länderverzeichnis
  • Für 7 Tage
  • Wassertemperatur
  • Satellitenkarten
  • Wetterkarte
  • Widgets
  • user-avatar
    Anmelden

    Stündliche Wetter Thimbu

    Heute, 14 Dezember, Donnerstag

    Zeit Temperatur Niederschläge Wind Luftdruck Luftfeuchtigkeit
    00:00 +2°C° 0 mm 2 m/S 523 mmHg 62%
    01:00 +1°C° 0 mm 2 m/S 523 mmHg 60%
    02:00 +1°C° 0 mm 2 m/S 523 mmHg 59%
    03:00 +1°C° 0 mm 2 m/S 522 mmHg 57%
    04:00 +1°C° 0 mm 2 m/S 522 mmHg 55%
    05:00 +1°C° 0 mm 2 m/S 522 mmHg 52%
    06:00 +1°C° 0 mm 2 m/S 523 mmHg 64%
    07:00 +3°C° 0 mm 2 m/S 524 mmHg 56%
    08:00 +5°C° 0 mm 2 m/S 525 mmHg 48%
    09:00 +7°C° 0 mm 2 m/S 527 mmHg 40%
    10:00 +9°C° 0 mm 2 m/S 527 mmHg 37%
    11:00 +10°C° 0 mm 3 m/S 528 mmHg 34%
    12:00 +12°C° 0 mm 3 m/S 528 mmHg 33%
    13:00 +11°C° 0 mm 3 m/S 528 mmHg 37%
    14:00 +10°C° 0 mm 3 m/S 527 mmHg 42%
    15:00 +10°C° 0 mm 3 m/S 527 mmHg 47%
    16:00 +7°C° 0 mm 3 m/S 525 mmHg 58%
    17:00 +5°C° 0 mm 2 m/S 524 mmHg 70%
    18:00 +2°C° 0 mm 2 m/S 523 mmHg 82%
    19:00 +2°C° 0 mm 2 m/S 523 mmHg 78%
    20:00 +2°C° 0 mm 2 m/S 523 mmHg 75%
    21:00 +2°C° 0 mm 2 m/S 524 mmHg 71%
    22:00 +1°C° 0 mm 2 m/S 523 mmHg 67%
    23:00 +1°C° 0 mm 2 m/S 523 mmHg 63%

    Morgen, 15 Dezember, Freitag

    Zeit Temperatur Niederschläge Wind Luftdruck Luftfeuchtigkeit
    00:00 +1°C° 0 mm 2 m/S 523 mmHg 60%
    01:00 +1°C° 0 mm 2 m/S 523 mmHg 56%
    02:00 +1°C° 0 mm 2 m/S 523 mmHg 52%
    03:00 +1°C° 0 mm 2 m/S 523 mmHg 49%
    04:00 -1°C° 0 mm 2 m/S 523 mmHg 45%
    05:00 -1°C° 0 mm 2 m/S 523 mmHg 42%
    06:00 -1°C° 0 mm 2 m/S 522 mmHg 39%
    07:00 +3°C° 0 mm 2 m/S 524 mmHg 34%
    08:00 +5°C° 0 mm 2 m/S 526 mmHg 30%
    09:00 +8°C° 0 mm 1 m/S 528 mmHg 25%
    10:00 +9°C° 0 mm 2 m/S 528 mmHg 25%
    11:00 +10°C° 0 mm 2 m/S 529 mmHg 24%
    12:00 +12°C° 0 mm 2 m/S 529 mmHg 24%
    13:00 +12°C° 0 mm 2 m/S 528 mmHg 28%
    14:00 +12°C° 0 mm 2 m/S 528 mmHg 32%
    15:00 +10°C° 0 mm 2 m/S 527 mmHg 36%
    16:00 +8°C° 0 mm 2 m/S 526 mmHg 48%
    17:00 +5°C° 0 mm 2 m/S 525 mmHg 59%
    18:00 +4°C° 0 mm 1 m/S 524 mmHg 70%
    19:00 +3°C° 0 mm 1 m/S 524 mmHg 67%
    20:00 +3°C° 0 mm 1 m/S 524 mmHg 64%
    21:00 +3°C° 0 mm 1 m/S 525 mmHg 60%
    22:00 +2°C° 0 mm 2 m/S 524 mmHg 59%
    23:00 +1°C° 0 mm 2 m/S 524 mmHg 57%

    übermorgen, 16 Dezember, Samstag

    Zeit Temperatur Niederschläge Wind Luftdruck Luftfeuchtigkeit
    00:00 +1°C° 0 mm 2 m/S 524 mmHg 55%
    01:00 +1°C° 0 mm 2 m/S 524 mmHg 53%
    02:00 +1°C° 0 mm 2 m/S 524 mmHg 51%
    03:00 +1°C° 0 mm 2 m/S 523 mmHg 48%
    04:00 +1°C° 0 mm 2 m/S 523 mmHg 46%
    05:00 +1°C° 0 mm 2 m/S 523 mmHg 44%
    06:00 +1°C° 0 mm 2 m/S 523 mmHg 42%
    07:00 +3°C° 0 mm 2 m/S 525 mmHg 38%
    08:00 +6°C° 0 mm 2 m/S 527 mmHg 34%
    09:00 +8°C° 0 mm 2 m/S 529 mmHg 30%
    10:00 +9°C° 0 mm 2 m/S 529 mmHg 30%
    11:00 +12°C° 0 mm 2 m/S 529 mmHg 29%
    12:00 +12°C° 0 mm 3 m/S 530 mmHg 29%
    13:00 +11°C° 0 mm 3 m/S 529 mmHg 33%
    14:00 +11°C° 0 mm 3 m/S 528 mmHg 37%
    15:00 +11°C° 0 mm 3 m/S 528 mmHg 41%
    16:00 +8°C° 0 mm 2 m/S 527 mmHg 53%
    17:00 +5°C° 0 mm 2 m/S 526 mmHg 66%
    18:00 +3°C° 0 mm 2 m/S 524 mmHg 78%
    19:00 +3°C° 0 mm 2 m/S 525 mmHg 76%
    20:00 +2°C° 0 mm 2 m/S 525 mmHg 73%
    21:00 +2°C° 0 mm 2 m/S 525 mmHg 70%
    22:00 +2°C° 0 mm 2 m/S 525 mmHg 67%
    23:00 +2°C° 0 mm 2 m/S 525 mmHg 63%

    17 Dezember, Sonntag

    Zeit Temperatur Niederschläge Wind Luftdruck Luftfeuchtigkeit
    00:00 +1°C° 0 mm 2 m/S 525 mmHg 60%
    01:00 +1°C° 0 mm 2 m/S 525 mmHg 57%
    02:00 +1°C° 0 mm 2 m/S 525 mmHg 53%
    03:00 +1°C° 0 mm 2 m/S 524 mmHg 49%
    04:00 +1°C° 0 mm 2 m/S 524 mmHg 47%
    05:00 +1°C° 0 mm 2 m/S 524 mmHg 45%
    06:00 +1°C° 0 mm 2 m/S 524 mmHg 42%
    07:00 +3°C° 0 mm 2 m/S 526 mmHg 38%
    08:00 +6°C° 0 mm 1 m/S 528 mmHg 34%
    09:00 +9°C° 0 mm 1 m/S 530 mmHg 30%
    10:00 +9°C° 0 mm 2 m/S 530 mmHg 30%
    11:00 +10°C° 0 mm 2 m/S 530 mmHg 29%
    12:00 +12°C° 0 mm 2 m/S 530 mmHg 29%
    13:00 +12°C° 0 mm 2 m/S 530 mmHg 33%
    14:00 +10°C° 0 mm 2 m/S 529 mmHg 36%
    15:00 +10°C° 0 mm 2 m/S 528 mmHg 40%
    16:00 +7°C° 0 mm 2 m/S 527 mmHg 52%
    17:00 +5°C° 0 mm 2 m/S 526 mmHg 64%
    18:00 +3°C° 0 mm 1 m/S 525 mmHg 76%
    19:00 +3°C° 0 mm 1 m/S 525 mmHg 73%
    20:00 +3°C° 0 mm 1 m/S 525 mmHg 70%
    21:00 +3°C° 0 mm 1 m/S 526 mmHg 67%
    22:00 +3°C° 0 mm 1 m/S 526 mmHg 65%
    23:00 +2°C° 0 mm 2 m/S 525 mmHg 63%

    18 Dezember, Montag

    Zeit Temperatur Niederschläge Wind Luftdruck Luftfeuchtigkeit
    00:00 +2°C° 0 mm 2 m/S 525 mmHg 61%
    01:00 +2°C° 0 mm 2 m/S 525 mmHg 59%
    02:00 +1°C° 0 mm 2 m/S 525 mmHg 57%
    03:00 +1°C° 0 mm 2 m/S 524 mmHg 54%
    04:00 +1°C° 0 mm 2 m/S 525 mmHg 51%
    05:00 +1°C° 0 mm 2 m/S 525 mmHg 49%
    06:00 +1°C° 0 mm 2 m/S 525 mmHg 46%
    07:00 +5°C° 0 mm 1 m/S 526 mmHg 41%
    08:00 +7°C° 0 mm 1 m/S 528 mmHg 36%
    09:00 +9°C° 0 mm 1 m/S 530 mmHg 31%
    10:00 +11°C° 0 mm 1 m/S 530 mmHg 30%
    11:00 +12°C° 0 mm 2 m/S 531 mmHg 29%
    12:00 +13°C° 0 mm 2 m/S 531 mmHg 29%
    13:00 +13°C° 0 mm 2 m/S 530 mmHg 32%
    14:00 +12°C° 0 mm 2 m/S 530 mmHg 36%
    15:00 +12°C° 0 mm 2 m/S 529 mmHg 39%
    16:00 +8°C° 0 mm 2 m/S 528 mmHg 50%
    17:00 +6°C° 0 mm 2 m/S 526 mmHg 62%
    18:00 +4°C° 0 mm 1 m/S 525 mmHg 74%
    19:00 +4°C° 0 mm 1 m/S 525 mmHg 69%
    20:00 +3°C° 0 mm 2 m/S 526 mmHg 65%
    21:00 +3°C° 0 mm 2 m/S 526 mmHg 60%
    22:00 +3°C° 0 mm 2 m/S 526 mmHg 57%
    23:00 +3°C° 0 mm 2 m/S 526 mmHg 54%

    19 Dezember, Dienstag

    Zeit Temperatur Niederschläge Wind Luftdruck Luftfeuchtigkeit
    00:00 +2°C° 0 mm 2 m/S 526 mmHg 51%
    01:00 +2°C° 0 mm 2 m/S 525 mmHg 49%
    02:00 +2°C° 0 mm 2 m/S 525 mmHg 46%
    03:00 +2°C° 0 mm 2 m/S 525 mmHg 44%
    04:00 +2°C° 0 mm 2 m/S 525 mmHg 42%
    05:00 +2°C° 0 mm 2 m/S 525 mmHg 40%
    06:00 +2°C° 0 mm 2 m/S 525 mmHg 38%
    07:00 +4°C° 0 mm 2 m/S 526 mmHg 35%
    08:00 +8°C° 0 mm 1 m/S 528 mmHg 32%
    09:00 +10°C° 0 mm 1 m/S 530 mmHg 29%
    10:00 +11°C° 0 mm 1 m/S 530 mmHg 30%
    11:00 +12°C° 0 mm 2 m/S 531 mmHg 31%
    12:00 +13°C° 0 mm 2 m/S 531 mmHg 31%
    13:00 +13°C° 0 mm 2 m/S 530 mmHg 36%
    14:00 +12°C° 0 mm 2 m/S 529 mmHg 41%
    15:00 +10°C° 0 mm 2 m/S 529 mmHg 45%
    16:00 +8°C° 0 mm 2 m/S 527 mmHg 56%
    17:00 +7°C° 0 mm 1 m/S 526 mmHg 67%
    18:00 +4°C° 0 mm 1 m/S 525 mmHg 78%
    19:00 +4°C° 0 mm 1 m/S 525 mmHg 77%
    20:00 +4°C° 0 mm 1 m/S 526 mmHg 76%
    21:00 +4°C° 0 mm 1 m/S 526 mmHg 75%
    22:00 +4°C° 0 mm 1 m/S 525 mmHg 73%
    23:00 +3°C° 0 mm 1 m/S 525 mmHg 72%
    Mehr zeigen